CET,Max TemperatureF,Mean TemperatureF,Min TemperatureF,Max Dew PointF,MeanDew PointF,Min DewpointF,Max Humidity, Mean Humidity, Min Humidity, Max Sea Level PressureIn, Mean Sea Level PressureIn, Min Sea Level PressureIn, Max VisibilityMiles, Mean VisibilityMiles, Min VisibilityMiles, Max Wind SpeedMPH, Mean Wind SpeedMPH, Max Gust SpeedMPH,PrecipitationIn, CloudCover, Events, WindDirDegrees
2013-10-1,51,40,30,39,35,28,93,81,54,30.30,30.28,30.27,6,6,6,8,3,,0.01,2,Fog,210
2013-10-2,50,39,28,37,34,27,95,81,50,30.36,30.35,30.30,6,6,6,15,4,,4.92,2,Fog,202
2013-10-3,48,42,37,41,39,36,100,86,71,30.39,30.35,30.30,6,6,6,14,5,,0.00,6,Fog,188
2013-10-4,46,41,36,41,38,34,93,84,75,30.30,30.12,29.92,19,6,3,12,4,,0.08,6,Rain,161
2013-10-5,57,49,41,52,45,39,100,93,77,29.92,29.80,29.74,19,6,2,10,4,,0.35,5,Fog-Rain,144
2013-10-6,55,44,33,48,41,34,100,85,59,29.98,29.94,29.92,6,5,0,14,3,,0.00,4,Fog,171
2013-10-7,60,55,50,54,49,48,94,83,56,30.01,29.96,29.92,6,6,6,14,9,,0.08,7,Rain,209
2013-10-8,62,58,53,54,53,50,100,87,67,30.01,29.90,29.74,19,7,6,16,10,,0.02,6,Rain,204
2013-10-9,59,54,48,50,45,37,94,78,45,29.74,29.58,29.50,6,6,6,12,8,,0.08,5,Rain,197
2013-10-10,50,44,37,43,36,30,93,76,54,30.30,29.92,29.56,16,6,6,21,14,,0.08,6,Rain,18
2013-10-11,50,40,30,36,31,27,93,74,44,30.51,30.42,30.30,,,,6,3,,0.00,,,357
2013-10-12,55,44,32,39,34,28,93,78,48,30.54,30.48,30.39,6,6,6,6,3,18,0.01,1,,11
2013-10-13,57,44,32,41,37,30,94,78,46,30.39,30.28,30.24,6,6,6,8,4,,0.00,,,25
2013-10-14,44,38,33,41,38,32,100,92,81,30.30,30.18,30.04,19,6,0,7,3,,0.00,6,Fog,350
2013-10-15,48,42,37,39,37,34,100,86,66,30.04,29.90,29.83,9,6,3,10,4,22,0.00,6,,5
2013-10-16,42,40,38,39,35,30,93,79,66,29.89,29.84,29.71,6,6,6,15,7,,0.00,6,Rain,131
2013-10-17,42,38,35,41,37,30,100,90,81,29.68,29.59,29.53,19,6,6,16,5,23,0.01,6,Rain,28
2013-10-18,44,36,28,30,26,21,93,70,36,29.98,29.91,29.68,6,6,6,9,4,,0.00,1,,296
2013-10-19,37,30,23,32,26,19,95,87,72,29.98,29.97,29.95,6,6,6,4,1,,0.00,,Fog,16
2013-10-20,36,30,24,27,24,21,100,76,50,30.04,29.98,29.95,,,,10,4,,0.00,8,,31
2013-10-21,36,34,32,32,24,21,100,67,49,30.04,30.03,30.01,9,6,3,9,7,,0.08,7,Rain-Snow,29
2013-10-22,44,37,32,43,36,31,100,98,93,30.01,29.70,29.44,7,4,2,7,5,,0.63,7,Rain-Snow,21
2013-10-23,55,52,50,54,53,50,100,98,94,29.42,29.34,29.24,6,5,1,22,11,33,0.04,7,Rain,183
2013-10-24,53,48,44,50,41,36,94,77,61,29.59,29.37,29.21,6,6,6,22,14,,0.00,5,Rain,205
2013-10-25,48,42,35,39,33,27,93,69,44,29.89,29.78,29.62,6,6,6,9,4,,0.08,6,Rain,169
2013-10-26,51,46,41,50,44,39,100,96,87,29.65,29.40,29.30,16,5,1,16,4,,0.08,6,Fog-Rain,197
2013-10-27,52,49,46,51,48,45,100,95,88,29.39,29.16,28.91,7,6,2,17,9,,0.59,6,Rain,179
2013-10-28,50,44,39,45,42,37,100,89,69,28.94,28.88,28.77,19,6,6,20,11,,0.00,5,,218
2013-10-29,50,44,37,43,39,36,100,90,76,29.44,29.17,28.91,6,6,1,8,2,,0.00,6,Fog,233
2013-10-30,46,37,28,39,34,27,100,86,52,29.86,29.69,29.47,19,7,6,6,2,,0.00,5,Fog-Rain,5
2013-10-31,50,39,28,46,36,27,100,91,74,29.83,29.72,29.65,6,4,0,9,2,,0.08,5,Fog-Rain,208